Regional Weather Roundup
Issued by NWS

Home | Current Version | Previous Version | Graphics & Text | Print | Product List | Glossary On
Versions: 1 2 3 4 5 6 7 8 9 10 11 12 13 14 15 16 17 18 19 20 21 22 23 24 25 26 27 28 29 30 31 32 33 34 35 36 37 38 39 40 41 42 43 44 45 46 47 48 49 50
000
ASUS43 KLMK 011710
RWRKY
KENTUCKY REGIONAL WEATHER ROUNDUP
NATIONAL WEATHER SERVICE LOUISVILLE KY
100 PM EDT WED JUL 01 2015

NOTE "FAIR" INDICATES FEW OR NO CLOUDS BELOW 12,000 FEET
WITH NO SIGNIFICANT WEATHER AND/OR OBSTRUCTIONS TO VISIBILITY.

KYZ001>023-026-027-061>063-070>075-011800-
WESTERN AND SOUTH CENTRAL KENTUCKY

CITY           SKY/WX    TMP DP  RH WIND       PRES   REMARKS
PADUCAH        LGT RAIN  73  69  87 W7        29.99R
HENDERSON      CLOUDY    73  68  83 W10       29.95F
OWENSBORO      CLOUDY    76  72  87 W10       29.97R FOG
HOPKINSVILLE   LGT RAIN  74  69  84 W14       30.01F
BOWLING GREEN  CLOUDY    78  72  81 SW8       29.98S
GLASGOW        CLOUDY    74  73  95 SW5       29.98S
$$

KYZ024-025-028>034-038-045-046-053-011800-
NORTH CENTRAL KENTUCKY

CITY           SKY/WX    TMP DP  RH WIND       PRES   REMARKS
LOUISVILLE/SDF CLOUDY    79  69  71 VRB6      29.94F
LOUISVILLE/LOU CLOUDY    78  68  71 W6        29.95F
FORT KNOX      CLOUDY    77  70  80 SW6       29.94F
$$

KYZ035>037-039>044-047>052-055>060-089>105-011800-
NORTHEAST KENTUCKY

CITY           SKY/WX    TMP DP  RH WIND       PRES   REMARKS
LEXINGTON      PTSUNNY   77  69  76 NW5       29.96F
COVINGTON      PTSUNNY   76  61  59 CALM      29.96S
FRANKFORT      PTSUNNY   77  68  73 N5        29.95F
$$

KYZ054-064>069-076>088-106>120-011800-
SOUTHEAST KENTUCKY

CITY           SKY/WX    TMP DP  RH WIND       PRES   REMARKS
JACKSON        PTSUNNY   78  68  71 CALM      29.98F
LONDON         CLOUDY    79  65  62 W9        29.99S
SOMERSET       MOSUNNY   73  68  83 W8        30.00S
MIDDLESBORO    CLOUDY    79  69  72 CALM      30.00S
MONTICELLO     CLOUDY    77  73  87 SW9       30.02S
$$



USA.gov is the U.S. government's official web portal to all federal, state and local government web resources and services.